Orr, MN

1:16 AM CDT on September 26, 2017 (GMT -0500)
Orr Regional

Weather History for KORB - March, 2013

Change the Weather History Date:

Thursday, March 21, 2013

  Actual Average Record
Temperature  
Mean Temperature 16 °F -  
Max Temperature 28 °F 35 °F 66 °F (2012)
Min Temperature 3 °F 14 °F -5 °F (2002)
Degree Days  
Heating Degree Days 50    
Moisture  
Dew Point 4 °F    
Average Humidity 67    
Maximum Humidity 85    
Minimum Humidity 40    
Precipitation  
Precipitation 0.00 in - - ()
Sea Level Pressure  
Sea Level Pressure 30.02 in    
Wind  
Wind Speed 1 mph (WNW)    
Max Wind Speed 8 mph    
Max Gust Speed -    
Visibility 10 miles    
Events Snow    
Averages and records for this station are not official NWS values.
T = Trace of Precipitation, MM = Missing Value Source: NWS Daily Summary

Daily Weather History Graph

Daily Weather History Graph

Search for Another Location

Airport or City:

Trip Planner

Search our weather history database for the weather conditions in past years. The results will help you decide how hot, cold, wet, or windy it might be!

Date:

Astronomy

Mar. 21, 2013 Rise Set
Actual Time 7:11 AM CDT 7:26 PM CDT
Civil Twilight 6:40 AM CDT 7:57 PM CDT
Nautical Twilight 6:04 AM CDT 8:33 PM CDT
Astronomical Twilight 5:26 AM CDT 9:11 PM CDT
Moon 1:35 PM CDT (3/21) 3:56 AM CDT (3/21)
Length of Visible Light 13h 16m
Length of Day
12h 14m
Waxing Gibbous, 69% of the Moon is Illuminated
Mar 21
Waxing Gibbous
Mar 27
Full
Apr 2
Last Quarter
Apr 10
New
Apr 18
First Quarter

Hourly Weather History & Observations

Time (CDT) Temp. Windchill Dew Point Humidity Pressure Visibility Wind Dir Wind Speed Gust Speed Precip Events Conditions
12:13 AM 6.8 °F - 1.4 °F 79% 30.05 in 10.0 mi Calm Calm - N/A   Overcast
12:33 AM 6.8 °F - 1.4 °F 79% 30.05 in 10.0 mi Calm Calm - N/A   Overcast
1:13 AM 6.8 °F - 1.4 °F 79% 30.05 in 10.0 mi Calm Calm - N/A   Mostly Cloudy
1:34 AM 6.8 °F - -0.4 °F 72% 30.04 in 10.0 mi Calm Calm - N/A   Overcast
1:53 AM 6.8 °F - 1.4 °F 79% 30.04 in 10.0 mi Calm Calm - N/A   Overcast
2:13 AM 6.8 °F - 1.4 °F 79% 30.04 in 10.0 mi Calm Calm - N/A   Overcast
2:33 AM 6.8 °F - 1.4 °F 79% 30.04 in 10.0 mi Calm Calm - N/A   Overcast
2:53 AM 6.8 °F - 1.4 °F 79% 30.03 in 7.0 mi Calm Calm - N/A   Overcast
3:33 AM 6.8 °F - 1.4 °F 79% 30.02 in 10.0 mi Calm Calm - N/A   Overcast
3:53 AM 5.0 °F - -0.4 °F 78% 30.02 in 10.0 mi Calm Calm - N/A   Overcast
4:13 AM 3.2 °F - -0.4 °F 85% 30.03 in 10.0 mi Calm Calm - N/A   Overcast
4:33 AM 5.0 °F - -0.4 °F 78% 30.03 in 10.0 mi Calm Calm - N/A   Overcast
4:53 AM 3.2 °F - -0.4 °F 85% 30.02 in 10.0 mi Calm Calm - N/A   Overcast
5:13 AM 3.2 °F - -0.4 °F 85% 30.02 in 10.0 mi Calm Calm - N/A   Overcast
5:33 AM 3.2 °F - -0.4 °F 85% 30.02 in 10.0 mi Calm Calm - N/A   Overcast
5:53 AM 3.2 °F - -0.4 °F 85% 30.02 in 10.0 mi Calm Calm - N/A   Overcast
6:13 AM 3.2 °F - -0.4 °F 85% 30.03 in 10.0 mi Calm Calm - N/A   Overcast
6:33 AM 3.2 °F - -0.4 °F 85% 30.02 in 7.0 mi Calm Calm - N/A   Overcast
6:53 AM 3.2 °F - -0.4 °F 85% 30.02 in 10.0 mi Calm Calm - N/A   Overcast
7:13 AM 3.2 °F - -0.4 °F 85% 30.03 in 10.0 mi Calm Calm - N/A   Overcast
7:33 AM 5.0 °F - -0.4 °F 78% 30.03 in 7.0 mi Calm Calm - N/A   Overcast
7:53 AM 5.0 °F - -0.4 °F 78% 30.04 in 10.0 mi Calm Calm - N/A   Overcast
8:13 AM 6.8 °F - 1.4 °F 79% 30.04 in 10.0 mi Calm Calm - N/A Snow Light Snow
8:33 AM 8.6 °F 2.0 °F 1.4 °F 73% 30.04 in 10.0 mi NW 3.5 mph - N/A   Overcast
8:53 AM 8.6 °F 2.0 °F 1.4 °F 73% 30.03 in 7.0 mi NW 3.5 mph - N/A Snow Light Snow
9:13 AM 10.4 °F - 3.2 °F 73% 30.03 in 7.0 mi Calm Calm - N/A Snow Light Snow
9:33 AM 10.4 °F 0.8 °F 3.2 °F 73% 30.03 in 7.0 mi NW 5.8 mph - N/A Snow Light Snow
9:53 AM 12.2 °F 6.1 °F 3.2 °F 67% 30.03 in 7.0 mi NW 3.5 mph - N/A   Overcast
10:13 AM 12.2 °F - 3.2 °F 67% 30.03 in 10.0 mi Calm Calm - N/A Snow Light Snow
10:33 AM 12.2 °F - 5.0 °F 73% 30.02 in 7.0 mi Calm Calm - N/A Snow Light Snow
10:53 AM 12.2 °F 2.9 °F 5.0 °F 73% 30.03 in 10.0 mi WNW 5.8 mph - N/A   Overcast
11:13 AM 14.0 °F 3.9 °F 5.0 °F 67% 30.02 in 10.0 mi WNW 6.9 mph - N/A   Mostly Cloudy
11:53 AM 15.8 °F 6.1 °F 5.0 °F 62% 30.02 in 10.0 mi WNW 6.9 mph - N/A   Clear
12:13 PM 17.6 °F 9.3 °F 6.8 °F 63% 30.02 in 10.0 mi WNW 5.8 mph - N/A   Clear
12:33 PM 19.4 °F 12.8 °F 6.8 °F 58% 30.01 in 10.0 mi WNW 4.6 mph - N/A   Clear
12:53 PM 19.4 °F 11.5 °F 6.8 °F 58% 30.01 in 10.0 mi WNW 5.8 mph - N/A   Clear
1:13 PM 21.2 °F 14.9 °F 6.8 °F 54% 30.01 in 10.0 mi West 4.6 mph - N/A   Clear
1:34 PM 21.2 °F 12.6 °F 6.8 °F 54% 30.00 in 10.0 mi West 6.9 mph - N/A   Clear
1:53 PM 23.0 °F 17.0 °F 6.8 °F 50% 29.99 in 10.0 mi WNW 4.6 mph - N/A   Clear
2:13 PM 23.0 °F 17.0 °F 6.8 °F 50% 29.99 in 10.0 mi WNW 4.6 mph - N/A   Clear
2:34 PM 24.8 °F 16.9 °F 6.8 °F 46% 29.99 in 10.0 mi WNW 6.9 mph - N/A   Clear
2:53 PM 24.8 °F 16.9 °F 6.8 °F 46% 29.98 in 10.0 mi WNW 6.9 mph - N/A   Clear
3:13 PM 26.6 °F 21.2 °F 8.6 °F 47% 29.98 in 10.0 mi NW 4.6 mph - N/A   Clear
3:33 PM 26.6 °F 19.1 °F 6.8 °F 43% 29.98 in 10.0 mi WNW 6.9 mph - N/A   Clear
3:53 PM 26.6 °F 18.2 °F 8.6 °F 47% 29.98 in 10.0 mi WNW 8.1 mph - N/A   Clear
4:13 PM 26.6 °F 19.1 °F 8.6 °F 47% 29.98 in 10.0 mi NW 6.9 mph - N/A   Clear
4:33 PM 26.6 °F 20.0 °F 8.6 °F 47% 29.98 in 10.0 mi WNW 5.8 mph - N/A   Clear
4:53 PM 28.4 °F 24.6 °F 8.6 °F 43% 29.99 in 10.0 mi NW 3.5 mph - N/A   Clear
5:13 PM 28.4 °F 24.6 °F 6.8 °F 40% 29.98 in 10.0 mi NNW 3.5 mph - N/A   Clear
5:33 PM 28.4 °F - 8.6 °F 43% 29.99 in 10.0 mi Calm Calm - N/A   Clear
5:53 PM 28.4 °F 23.3 °F 6.8 °F 40% 29.98 in 10.0 mi NNW 4.6 mph - N/A   Clear
6:13 PM 26.6 °F 22.6 °F 6.8 °F 43% 29.99 in 10.0 mi NNW 3.5 mph - N/A   Clear
6:33 PM 26.6 °F - 6.8 °F 43% 30.00 in 10.0 mi Calm Calm - N/A   Clear
6:53 PM 24.8 °F - 6.8 °F 46% 30.00 in 10.0 mi Calm Calm - N/A   Clear
7:13 PM 24.8 °F - 6.8 °F 46% 30.01 in 10.0 mi Calm Calm - N/A   Clear
7:33 PM 23.0 °F - 6.8 °F 50% 30.01 in 10.0 mi Calm Calm - N/A   Clear
7:53 PM 19.4 °F - 8.6 °F 63% 30.01 in 10.0 mi Calm Calm - N/A   Clear
8:13 PM 17.6 °F - 8.6 °F 68% 30.02 in 10.0 mi Calm Calm - N/A   Clear
8:33 PM 17.6 °F - 8.6 °F 68% 30.02 in 10.0 mi Calm Calm - N/A   Clear
8:53 PM 15.8 °F - 6.8 °F 68% 30.02 in 10.0 mi Calm Calm - N/A   Clear
9:13 PM 14.0 °F - 6.8 °F 73% 30.02 in 10.0 mi Calm Calm - N/A   Clear
9:33 PM 14.0 °F - 6.8 °F 73% 30.02 in 10.0 mi Calm Calm - N/A   Clear
9:53 PM 12.2 °F - 6.8 °F 79% 30.02 in 10.0 mi Calm Calm - N/A   Clear
10:13 PM 10.4 °F - 6.8 °F 85% 30.02 in 10.0 mi Calm Calm - N/A   Clear
10:33 PM 12.2 °F - 6.8 °F 79% 30.02 in 10.0 mi Calm Calm - N/A   Clear
10:53 PM 10.4 °F - 5.0 °F 79% 30.02 in 10.0 mi Calm Calm - N/A   Clear
11:13 PM 8.6 °F - 5.0 °F 85% 30.02 in 10.0 mi Calm Calm - N/A   Clear
11:33 PM 6.8 °F - 1.4 °F 79% 30.02 in 10.0 mi Calm Calm - N/A   Clear
11:53 PM 6.8 °F - 1.4 °F 79% 30.02 in 10.0 mi Calm Calm - N/A   Clear